Wind_Speed
25 26 27 27 24 22 21 22 23 24 25 27 28 29 29 30 30 30 31 32 33 33 34 33 32 31 30 29 28 26 25 25 25 26 26 26 26 28 29 29 32 34 36
28 26 27 29 26 24 24 25 26 27 28 29 30 31 32 32 32 33 33 34 34 35 36 35 33 31 30 29 27 25 25 26 25 26 28 27 28 30 31 33 36 38 40
29 29 30 30 30 28 27 27 29 30 31 32 32 33 34 35 35 35 36 37 38 37 38 37 35 33 30 28 28 28 28 28 28 29 30 31 32 33 35 36 39 41 44
32 32 33 33 32 32 30 30 32 32 33 34 34 35 36 37 37 38 39 40 40 39 39 38 36 34 33 31 31 31 31 31 32 33 34 35 36 38 40 43 46 48 49
33 34 34 36 35 36 35 34 34 34 35 35 36 37 38 39 40 41 42 42 42 41 40 39 38 37 35 34 34 33 34 35 36 37 39 40 42 44 46 47 50 53 55
34 34 35 36 37 38 37 36 35 35 36 36 38 39 40 41 42 43 44 44 43 42 41 40 40 39 37 37 37 37 37 38 40 42 43 44 47 49 51 52 54 56 58
32 34 35 36 37 37 38 37 37 36 37 38 39 41 42 43 44 45 45 46 45 43 42 42 42 41 40 40 40 40 41 42 44 46 47 49 51 53 55 56 58 59 61
34 34 35 36 36 37 37 37 37 37 38 39 40 41 42 43 45 46 46 45 43 43 44 45 44 43 43 43 43 43 45 46 47 49 50 52 54 56 57 59 61 61 62
37 36 35 35 35 35 36 37 37 37 38 39 40 41 43 44 45 46 46 45 45 46 47 47 46 46 46 46 46 47 48 50 51 52 54 55 56 58 59 61 62 63 63
35 34 34 33 33 33 34 34 35 37 38 39 41 42 43 44 45 46 46 47 48 49 49 48 49 50 50 50 51 52 52 53 54 55 56 57 58 59 61 61 62 63 63
30 30 29 30 31 31 32 33 34 35 37 38 40 41 43 44 45 46 47 49 50 50 51 52 52 52 53 54 54 55 56 56 57 58 58 59 59 59 60 61 61 61 61
27 28 28 29 30 31 32 33 34 36 37 39 40 42 44 45 47 49 50 51 52 53 53 54 54 55 56 57 57 58 58 59 59 59 59 58 58 58 58 58 58 58 58
26 27 29 30 31 32 33 35 36 37 39 41 42 44 46 48 49 51 52 53 54 55 55 56 57 57 58 59 59 59 59 59 59 58 57 57 57 56 56 56 56 55 55
27 29 30 31 33 34 35 37 38 40 41 43 44 46 48 49 51 53 54 55 55 56 56 57 58 58 59 59 59 59 59 58 57 56 56 55 55 54 54 54 54 54 54
30 32 33 35 36 38 39 40 42 43 44 46 47 49 50 52 53 54 55 54 54 55 57 57 58 59 59 59 59 58 57 56 55 54 53 53 52 52 52 52 52 52 51
32 34 36 37 38 40 41 43 44 47 48 49 50 51 51 52 53 52 52 53 54 56 57 57 58 58 58 58 56 55 54 53 52 52 51 51 51 51 50 50 49 48 46
31 33 35 38 39 40 41 42 44 45 46 46 46 47 48 49 50 52 53 54 55 56 56 56 56 55 54 54 53 52 51 51 50 50 49 49 49 48 47 45 43 41 39
34 34 34 34 35 36 37 39 39 40 41 43 44 46 48 49 50 51 52 52 53 53 53 53 53 52 51 51 50 49 49 48 48 48 47 46 44 43 40 37 35 33 31
34 33 34 35 35 35 36 37 38 39 41 43 44 45 46 47 49 49 50 51 51 51 51 51 50 49 49 48 48 47 46 46 45 44 41 38 37 34 31 29 27 26 25
33 32 33 34 34 34 35 37 38 39 40 41 42 44 45 46 47 48 48 49 50 50 50 49 49 48 46 45 44 43 42 40 38 36 33 30 28 25 23 22 21 20 19
31 32 33 33 34 35 36 37 38 39 40 41 42 43 44 45 45 46 47 48 48 47 47 46 44 43 41 39 38 36 34 33 30 27 24 21 19 18 17 17 16 15 16
30 30 31 32 33 34 35 36 37 38 39 39 40 41 42 43 43 44 44 44 43 42 41 39 37 36 33 31 30 29 27 24 21 18 16 14 13 13 13 12 13 13 14
28 29 30 31 32 33 34 34 35 35 36 37 38 39 39 40 40 40 40 39 37 35 33 31 29 28 26 24 23 21 18 15 13 11 9 9 9 9 10 10 11 12 13
26 27 28 29 29 30 31 31 32 33 34 35 35 36 36 37 37 36 34 32 30 28 26 24 22 21 19 18 15 12 10 8 7 6 6 6 7 8 9 9 10 11 13
24 24 24 25 25 26 27 28 30 31 32 33 33 33 32 32 31 29 28 25 23 22 20 18 16 15 13 10 8 5 4 4 3 4 5 6 7 8 9 10 11 12 13
20 21 21 22 23 24 25 27 28 29 30 29 29 29 28 27 25 23 21 20 19 17 15 14 12 10 8 6 4 4 4 4 5 6 7 7 8 9 10 11 12 13 14
Wind_Direction
239 244 250 255 258 261 268 275 280 285 288 291 294 297 300 302 304 307 309 312 315 317 320 317 314 315 315 315 313 308 303 302 303 302 300 299 294 291 288 287 286 286 286
234 242 250 255 259 261 268 272 278 283 285 286 288 290 292 294 296 300 303 306 309 311 314 315 311 312 312 312 312 311 307 305 304 302 300 297 294 292 290 288 288 288 288
241 241 248 253 260 262 267 272 276 280 282 282 282 284 287 289 291 294 298 300 303 305 308 311 311 309 309 311 309 306 305 304 301 300 297 294 292 291 291 290 289 289 288
245 247 251 257 262 265 266 271 274 277 277 276 277 279 282 285 287 290 292 294 297 300 304 306 307 306 306 306 305 304 303 301 299 298 297 295 293 291 293 293 292 291 289
245 249 255 260 264 267 268 271 274 276 275 273 273 275 279 282 284 286 288 291 294 296 299 301 302 302 303 303 301 301 301 301 299 297 296 295 294 293 294 293 292 291 290
248 251 254 257 262 266 268 271 272 273 272 273 273 275 277 280 282 283 285 287 290 293 296 297 299 300 300 299 297 297 297 297 297 297 296 294 293 293 292 291 291 290 289
255 256 257 258 261 265 268 270 270 271 271 272 273 274 276 278 280 282 283 285 288 291 293 296 296 296 295 296 296 296 295 295 296 296 295 293 293 292 292 291 291 290 289
260 260 261 261 263 265 266 268 269 270 270 271 272 273 275 277 279 281 282 284 287 290 292 293 293 292 293 295 294 294 295 295 295 294 294 293 292 291 291 290 290 289 289
260 261 261 262 263 263 264 265 266 267 268 268 270 271 274 276 278 280 283 285 287 289 290 291 291 293 294 293 294 295 295 295 295 294 293 292 291 291 290 290 290 289 288
258 259 260 260 261 262 263 263 263 265 266 267 269 271 273 275 277 280 283 284 286 287 289 290 292 292 293 293 294 295 295 295 294 294 294 293 292 292 291 290 290 290 290
256 257 257 258 259 260 261 262 264 264 266 267 269 271 273 275 277 279 281 283 285 287 289 290 291 291 292 293 294 295 295 295 295 294 294 293 293 292 292 292 292 292 291
255 255 256 257 258 260 261 263 264 266 267 268 270 272 274 275 277 279 281 283 285 287 287 289 290 291 292 293 293 294 294 294 294 294 294 294 294 294 293 293 293 293 293
254 255 257 259 260 261 262 264 265 267 269 270 271 273 274 276 278 280 282 283 285 285 287 288 290 291 292 293 293 293 294 294 294 294 295 295 294 294 294 294 294 294 294
255 257 259 261 263 265 266 267 268 270 271 272 273 275 277 279 280 282 282 284 285 286 287 289 290 292 293 293 293 294 294 294 295 295 295 295 295 295 295 295 295 295 295
258 260 261 263 265 266 268 269 271 272 273 274 275 276 278 280 281 282 283 284 285 286 288 289 290 291 292 292 293 293 294 294 294 295 295 295 295 296 296 296 296 296 297
262 263 263 264 265 267 268 269 271 273 273 273 275 276 277 279 282 284 286 287 288 289 289 290 291 292 292 293 293 294 294 294 295 295 295 296 296 296 296 296 297 298 298
266 265 266 267 268 269 270 271 274 275 274 276 279 280 282 284 286 287 288 289 290 291 291 292 292 293 293 294 294 295 295 296 296 296 296 296 297 297 297 298 298 299 300
272 273 271 272 275 276 277 277 277 280 282 284 286 287 288 288 290 291 291 292 292 292 293 293 293 294 294 294 295 296 296 296 296 296 297 298 298 298 299 300 300 302 304
273 274 276 278 279 281 283 283 285 287 289 290 291 292 293 293 294 293 293 293 293 293 294 294 294 294 295 295 295 296 296 296 297 297 298 299 299 300 301 302 303 306 309
276 276 277 278 280 285 288 290 292 293 294 295 295 296 296 296 295 295 295 295 295 295 294 294 295 295 295 295 296 296 297 297 297 298 299 300 301 302 304 305 308 311 315
276 278 282 285 288 291 294 295 296 297 298 298 298 298 298 298 298 298 298 298 297 297 296 296 296 296 296 296 296 297 297 297 298 299 300 302 303 305 307 311 315 319 324
284 285 288 291 293 296 298 299 300 301 301 301 301 302 302 302 302 302 301 301 301 300 299 298 297 297 297 297 297 298 299 299 300 301 304 306 309 313 317 322 327 331 336
291 292 294 295 297 299 301 302 303 304 305 305 306 306 307 307 307 307 307 307 305 304 303 301 300 299 299 299 299 300 301 302 306 309 312 317 325 331 335 339 342 346 351
294 296 297 299 301 303 304 306 307 309 310 310 311 311 312 312 312 312 312 312 311 310 309 307 305 304 303 303 304 305 306 312 320 328 336 344 352 356 358 359 2 4 6
297 299 301 303 305 307 309 311 313 314 315 315 316 316 316 317 317 317 317 319 319 319 318 317 315 315 316 317 319 328 342 355 7 13 16 18 18 18 17 18 16 15 15
301 303 306 309 311 314 316 317 319 319 320 320 321 321 322 323 324 324 326 327 328 330 330 331 332 335 342 357 17 32 44 56 54 47 43 42 40 38 36 32 29 26 25
Height
5858 5858 5858 5858 5861 5862 5864 5865 5865 5865 5865 5865 5865 5865 5864 5863 5862 5861 5860 5858 5857 5855 5853 5850 5847 5844 5841 5838 5836 5834 5833 5832 5831 5831 5830 5829 5829 5828 5827 5826 5824 5822 5821
5850 5854 5854 5853 5855 5856 5859 5860 5860 5860 5860 5860 5860 5859 5859 5858 5857 5856 5854 5853 5851 5850 5847 5844 5841 5839 5837 5834 5832 5830 5829 5828 5826 5824 5823 5822 5822 5821 5819 5818 5816 5813 5811
5847 5848 5849 5847 5848 5851 5854 5855 5855 5855 5854 5854 5853 5853 5852 5852 5851 5850 5849 5847 5845 5843 5841 5839 5836 5834 5832 5829 5827 5825 5823 5821 5819 5817 5816 5814 5813 5812 5810 5808 5806 5804 5801
5842 5844 5843 5842 5843 5845 5846 5849 5848 5848 5848 5847 5846 5846 5846 5845 5844 5843 5842 5841 5839 5837 5835 5833 5830 5828 5826 5824 5821 5819 5817 5815 5813 5811 5808 5806 5804 5802 5800 5798 5794 5791 5787
5836 5838 5839 5838 5838 5839 5839 5842 5841 5840 5840 5839 5839 5839 5838 5837 5837 5836 5835 5833 5832 5830 5828 5825 5823 5821 5819 5817 5814 5812 5809 5807 5804 5802 5799 5796 5793 5790 5788 5785 5782 5777 5773
5830 5832 5833 5832 5833 5833 5832 5833 5835 5834 5833 5832 5831 5830 5830 5829 5829 5828 5826 5825 5823 5821 5819 5817 5815 5813 5811 5808 5806 5804 5801 5798 5795 5792 5788 5785 5782 5778 5774 5771 5768 5764 5759
5823 5824 5825 5826 5826 5826 5826 5826 5826 5826 5825 5825 5824 5823 5823 5821 5820 5819 5818 5816 5815 5812 5811 5809 5807 5805 5802 5800 5797 5794 5791 5788 5784 5781 5777 5773 5769 5765 5760 5756 5752 5749 5744
5815 5816 5817 5818 5818 5819 5818 5818 5818 5818 5817 5817 5816 5815 5814 5813 5812 5810 5809 5807 5805 5803 5802 5800 5797 5795 5792 5789 5786 5783 5780 5776 5772 5768 5764 5760 5755 5750 5745 5741 5736 5732 5728
5807 5808 5808 5809 5809 5810 5810 5810 5810 5809 5809 5808 5808 5807 5806 5805 5803 5801 5799 5797 5796 5794 5792 5789 5787 5784 5781 5778 5775 5771 5768 5764 5759 5755 5751 5746 5740 5735 5730 5724 5719 5715 5711
5798 5799 5799 5800 5800 5801 5801 5801 5801 5801 5801 5800 5799 5798 5797 5795 5794 5792 5790 5788 5786 5783 5781 5778 5775 5772 5769 5766 5762 5758 5754 5750 5745 5741 5736 5731 5725 5719 5714 5708 5702 5696 5692
5789 5790 5791 5791 5792 5793 5793 5793 5793 5793 5792 5791 5790 5789 5787 5786 5784 5782 5780 5777 5775 5772 5769 5766 5763 5760 5757 5753 5748 5744 5740 5736 5731 5726 5721 5715 5710 5704 5698 5692 5686 5680 5674
5782 5782 5783 5784 5784 5785 5785 5785 5784 5784 5783 5782 5781 5780 5778 5776 5774 5772 5769 5766 5764 5760 5757 5754 5750 5747 5743 5739 5735 5730 5726 5721 5716 5710 5705 5700 5694 5688 5682 5676 5670 5664 5658
5775 5775 5776 5776 5777 5777 5777 5776 5776 5775 5774 5773 5772 5770 5768 5766 5763 5760 5758 5755 5751 5748 5744 5741 5737 5733 5729 5725 5720 5715 5711 5706 5700 5695 5690 5684 5679 5673 5667 5661 5655 5649 5643
5767 5768 5768 5769 5769 5768 5768 5767 5767 5766 5764 5763 5761 5759 5757 5754 5751 5748 5745 5742 5739 5735 5731 5727 5723 5719 5715 5710 5705 5700 5696 5691 5685 5680 5675 5670 5664 5659 5653 5647 5641 5635 5629
5760 5760 5760 5760 5760 5759 5759 5758 5757 5755 5753 5752 5749 5747 5744 5742 5739 5736 5732 5729 5725 5721 5717 5713 5709 5704 5700 5695 5690 5685 5681 5676 5671 5666 5661 5656 5650 5645 5639 5633 5627 5621 5615
5751 5751 5751 5751 5750 5750 5749 5747 5746 5744 5742 5740 5737 5735 5732 5729 5726 5722 5719 5715 5711 5707 5703 5699 5694 5690 5685 5680 5676 5671 5666 5662 5657 5652 5647 5642 5637 5632 5626 5620 5614 5608 5603
5742 5742 5741 5741 5740 5739 5738 5736 5734 5732 5730 5727 5725 5722 5719 5716 5712 5709 5705 5701 5697 5693 5688 5684 5679 5675 5670 5666 5661 5657 5653 5648 5644 5639 5634 5628 5623 5619 5613 5607 5602 5597 5591
5735 5734 5732 5731 5729 5728 5726 5725 5723 5720 5717 5715 5712 5709 5706 5703 5699 5695 5692 5687 5683 5678 5674 5669 5665 5661 5656 5651 5647 5643 5639 5635 5630 5626 5621 5616 5611 5606 5602 5597 5592 5588 5583
5726 5726 5724 5723 5721 5719 5717 5715 5712 5709 5707 5704 5701 5697 5694 5690 5686 5682 5678 5673 5669 5664 5659 5655 5650 5647 5643 5638 5634 5630 5626 5622 5618 5613 5609 5605 5600 5596 5592 5589 5585 5582 5578
5719 5718 5716 5714 5712 5710 5708 5706 5703 5700 5697 5694 5690 5686 5683 5678 5674 5669 5664 5659 5655 5650 5645 5641 5636 5633 5629 5625 5621 5617 5614 5610 5606 5603 5599 5596 5592 5589 5586 5583 5580 5577 5574
5712 5710 5709 5706 5704 5702 5700 5697 5694 5691 5687 5684 5680 5675 5671 5666 5661 5656 5651 5646 5641 5636 5631 5627 5623 5620 5616 5612 5609 5606 5603 5600 5597 5595 5592 5589 5587 5584 5582 5579 5577 5574 5571
5704 5703 5701 5699 5696 5694 5691 5688 5685 5681 5678 5673 5669 5664 5659 5654 5649 5644 5638 5633 5627 5623 5618 5614 5611 5608 5605 5602 5599 5597 5594 5592 5590 5588 5587 5585 5583 5581 5579 5577 5575 5572 5569
5698 5696 5694 5691 5689 5686 5683 5680 5676 5672 5668 5664 5659 5654 5648 5643 5637 5632 5626 5621 5616 5612 5608 5604 5601 5599 5597 5594 5592 5590 5588 5587 5585 5584 5583 5582 5581 5579 5577 5575 5573 5571 5568
5691 5689 5687 5685 5682 5679 5676 5673 5669 5664 5660 5655 5650 5644 5639 5633 5628 5622 5617 5613 5608 5604 5600 5597 5595 5592 5590 5588 5587 5585 5584 5584 5583 5582 5582 5581 5580 5578 5577 5575 5572 5570 5567
5685 5683 5681 5679 5676 5673 5670 5666 5662 5657 5652 5647 5642 5636 5631 5626 5620 5615 5610 5606 5602 5598 5596 5593 5590 5588 5586 5585 5584 5583 5583 5582 5582 5582 5582 5581 5580 5578 5577 5575 5573 5570 5568
5680 5678 5676 5674 5671 5668 5664 5660 5655 5651 5646 5641 5635 5630 5625 5620 5616 5611 5607 5602 5599 5596 5593 5590 5588 5586 5585 5584 5583 5583 5583 5583 5583 5583 5582 5582 5581 5579 5578 5576 5574 5572 5569